When you browse on this site, cookies collect data to enhance your experience and personalize the content and advertising you see.
Visit our Privacy Policy to learn more. By continuing to use the site, you agree to this use of cookies and data.
  • In Hungary
  • List of Countries
  • For 7 days
  • Water Temperature
  • Satellite Maps
  • Weather Map
  • News
  • Weather Widgets
  • user-avatar
    Login

    Hourly Weather Nizhneangarsk

    Today, 15 December, Saturday

    Time Temperature Precipitation Wind Pressure Humidity
    00:00 -12°C° 0.2 mm 4 mps 718 mmHg 92%
    01:00 -12°C° 0 mm 4 mps 717 mmHg 92%
    02:00 -12°C° 0.2 mm 4 mps 717 mmHg 92%
    03:00 -12°C° 0.2 mm 4 mps 716 mmHg 92%
    04:00 -12°C° 0.2 mm 4 mps 716 mmHg 92%
    05:00 -12°C° 0.2 mm 4 mps 716 mmHg 92%
    06:00 -12°C° 0.2 mm 4 mps 716 mmHg 92%
    07:00 -14°C° 0.2 mm 4 mps 716 mmHg 92%
    08:00 -12°C° 0.2 mm 4 mps 716 mmHg 92%
    09:00 -12°C° 0.2 mm 4 mps 716 mmHg 91%
    10:00 -12°C° 0.2 mm 4 mps 716 mmHg 91%
    11:00 -11°C° 0.2 mm 4 mps 715 mmHg 90%
    12:00 -11°C° 0.2 mm 4 mps 715 mmHg 90%
    13:00 -12°C° 0.2 mm 5 mps 715 mmHg 89%
    14:00 -12°C° 0.1 mm 4 mps 716 mmHg 89%
    15:00 -14°C° 0.1 mm 4 mps 716 mmHg 90%
    16:00 -15°C° 0.1 mm 4 mps 717 mmHg 90%
    17:00 -15°C° 0.1 mm 3 mps 717 mmHg 90%
    18:00 -15°C° 0.1 mm 3 mps 717 mmHg 90%
    19:00 -15°C° 0.1 mm 2 mps 717 mmHg 90%
    20:00 -15°C° 0 mm 2 mps 716 mmHg 90%
    21:00 -15°C° 0 mm 2 mps 716 mmHg 91%
    22:00 -16°C° 0 mm 2 mps 716 mmHg 91%
    23:00 -16°C° 0.1 mm 3 mps 716 mmHg 91%

    Tomorrow, 16 December, Sunday

    Time Temperature Precipitation Wind Pressure Humidity
    00:00 -15°C° 0.1 mm 3 mps 715 mmHg 91%
    01:00 -15°C° 0.1 mm 3 mps 715 mmHg 91%
    02:00 -15°C° 0.2 mm 4 mps 714 mmHg 92%
    03:00 -15°C° 0.2 mm 4 mps 714 mmHg 93%
    04:00 -14°C° 0.2 mm 5 mps 713 mmHg 94%
    05:00 -14°C° 0.3 mm 5 mps 713 mmHg 94%
    06:00 -13°C° 0.3 mm 5 mps 712 mmHg 94%
    07:00 -13°C° 0.3 mm 5 mps 712 mmHg 94%
    08:00 -12°C° 0.3 mm 6 mps 711 mmHg 93%
    09:00 -11°C° 0.3 mm 6 mps 711 mmHg 93%
    10:00 -11°C° 0.3 mm 6 mps 710 mmHg 92%
    11:00 -12°C° 0.2 mm 7 mps 711 mmHg 89%
    12:00 -12°C° 0.2 mm 7 mps 711 mmHg 86%
    13:00 -13°C° 0.2 mm 8 mps 711 mmHg 83%
    14:00 -14°C° 0.1 mm 7 mps 712 mmHg 84%
    15:00 -16°C° 0.1 mm 6 mps 713 mmHg 84%
    16:00 -17°C° 0.1 mm 6 mps 714 mmHg 85%
    17:00 -19°C° 0 mm 5 mps 715 mmHg 86%
    18:00 -19°C° 0 mm 4 mps 716 mmHg 87%
    19:00 -19°C° 0 mm 3 mps 716 mmHg 89%
    20:00 -21°C° 0 mm 3 mps 717 mmHg 90%
    21:00 -20°C° 0 mm 2 mps 717 mmHg 91%
    22:00 -21°C° 0 mm 2 mps 718 mmHg 93%
    23:00 -23°C° 0 mm 2 mps 718 mmHg 92%

    Day after tomorrow, 17 December, Monday

    Time Temperature Precipitation Wind Pressure Humidity
    00:00 -23°C° 0 mm 2 mps 718 mmHg 91%
    01:00 -23°C° 0 mm 2 mps 719 mmHg 91%
    02:00 -23°C° 0 mm 2 mps 719 mmHg 90%
    03:00 -23°C° 0 mm 2 mps 719 mmHg 90%
    04:00 -23°C° 0 mm 2 mps 719 mmHg 89%
    05:00 -23°C° 0 mm 2 mps 719 mmHg 90%
    06:00 -23°C° 0 mm 2 mps 720 mmHg 91%
    07:00 -21°C° 0 mm 2 mps 720 mmHg 92%
    08:00 -21°C° 0 mm 2 mps 720 mmHg 92%
    09:00 -21°C° 0 mm 2 mps 720 mmHg 91%
    10:00 -20°C° 0 mm 2 mps 721 mmHg 91%
    11:00 -20°C° 0 mm 2 mps 720 mmHg 91%
    12:00 -19°C° 0 mm 2 mps 720 mmHg 90%
    13:00 -18°C° 0 mm 2 mps 720 mmHg 89%
    14:00 -19°C° 0 mm 2 mps 720 mmHg 90%
    15:00 -22°C° 0 mm 3 mps 720 mmHg 90%
    16:00 -23°C° 0 mm 3 mps 720 mmHg 90%
    17:00 -22°C° 0.1 mm 3 mps 720 mmHg 90%
    18:00 -21°C° 0.1 mm 3 mps 720 mmHg 91%
    19:00 -21°C° 0.1 mm 3 mps 720 mmHg 91%
    20:00 -20°C° 0.1 mm 4 mps 719 mmHg 91%
    21:00 -20°C° 0.1 mm 4 mps 719 mmHg 92%
    22:00 -19°C° 0.1 mm 4 mps 718 mmHg 92%
    23:00 -18°C° 0.2 mm 4 mps 718 mmHg 93%

    18 December, Tuesday

    Time Temperature Precipitation Wind Pressure Humidity
    00:00 -19°C° 0.2 mm 5 mps 717 mmHg 93%
    01:00 -18°C° 0.2 mm 5 mps 717 mmHg 93%
    02:00 -18°C° 0.2 mm 5 mps 716 mmHg 93%
    03:00 -18°C° 0.2 mm 5 mps 715 mmHg 93%
    04:00 -17°C° 0.2 mm 5 mps 714 mmHg 93%
    05:00 -16°C° 0.1 mm 4 mps 714 mmHg 92%
    06:00 -16°C° 0.1 mm 4 mps 714 mmHg 92%
    07:00 -16°C° 0.1 mm 4 mps 714 mmHg 92%
    08:00 -15°C° 0.1 mm 4 mps 713 mmHg 91%
    09:00 -15°C° 0.1 mm 4 mps 713 mmHg 91%
    10:00 -15°C° 0.1 mm 4 mps 713 mmHg 91%
    11:00 -14°C° 0.1 mm 4 mps 713 mmHg 90%
    12:00 -12°C° 0.1 mm 4 mps 713 mmHg 90%
    13:00 -13°C° 0.1 mm 5 mps 712 mmHg 90%
    14:00 -13°C° 0.2 mm 5 mps 712 mmHg 91%
    15:00 -13°C° 0.2 mm 5 mps 712 mmHg 91%
    16:00 -13°C° 0.2 mm 5 mps 712 mmHg 92%
    17:00 -13°C° 0.3 mm 5 mps 712 mmHg 92%
    18:00 -12°C° 0.3 mm 5 mps 712 mmHg 92%
    19:00 -12°C° 0.3 mm 5 mps 712 mmHg 92%
    20:00 -12°C° 0.3 mm 6 mps 712 mmHg 92%
    21:00 -12°C° 0.3 mm 6 mps 712 mmHg 92%
    22:00 -12°C° 0.3 mm 6 mps 712 mmHg 92%
    23:00 -12°C° 0.2 mm 6 mps 711 mmHg 92%

    19 December, Wednesday

    Time Temperature Precipitation Wind Pressure Humidity
    00:00 -12°C° 0.2 mm 6 mps 711 mmHg 92%
    01:00 -12°C° 0.2 mm 6 mps 711 mmHg 92%
    02:00 -12°C° 0.2 mm 6 mps 711 mmHg 92%
    03:00 -12°C° 0.2 mm 6 mps 711 mmHg 92%
    04:00 -12°C° 0.2 mm 6 mps 711 mmHg 92%
    05:00 -12°C° 0.2 mm 6 mps 711 mmHg 92%
    06:00 -12°C° 0.2 mm 6 mps 711 mmHg 92%
    07:00 -12°C° 0.2 mm 5 mps 711 mmHg 92%
    08:00 -12°C° 0.2 mm 6 mps 711 mmHg 92%
    09:00 -12°C° 0.2 mm 6 mps 711 mmHg 91%
    10:00 -11°C° 0.2 mm 6 mps 711 mmHg 91%
    11:00 -11°C° 0.2 mm 6 mps 711 mmHg 91%
    12:00 -11°C° 0.2 mm 6 mps 710 mmHg 91%
    13:00 -11°C° 0.2 mm 6 mps 710 mmHg 90%
    14:00 -11°C° 0.2 mm 6 mps 710 mmHg 91%
    15:00 -12°C° 0.2 mm 6 mps 710 mmHg 91%
    16:00 -12°C° 0.2 mm 6 mps 710 mmHg 92%
    17:00 -12°C° 0.2 mm 6 mps 710 mmHg 91%
    18:00 -12°C° 0.2 mm 6 mps 710 mmHg 91%
    19:00 -12°C° 0.2 mm 6 mps 710 mmHg 91%
    20:00 -12°C° 0.2 mm 6 mps 710 mmHg 91%
    21:00 -12°C° 0.2 mm 6 mps 710 mmHg 91%
    22:00 -12°C° 0.2 mm 6 mps 709 mmHg 90%
    23:00 -12°C° 0.2 mm 6 mps 709 mmHg 90%

    20 December, Thursday

    Time Temperature Precipitation Wind Pressure Humidity
    00:00 -12°C° 0.2 mm 6 mps 709 mmHg 89%
    01:00 -12°C° 0.2 mm 6 mps 709 mmHg 89%
    02:00 -12°C° 0.2 mm 6 mps 709 mmHg 89%
    03:00 -13°C° 0.2 mm 7 mps 709 mmHg 89%
    04:00 -13°C° 0.2 mm 7 mps 709 mmHg 89%
    05:00 -14°C° 0.1 mm 7 mps 709 mmHg 88%
    06:00 -15°C° 0.1 mm 8 mps 709 mmHg 86%
    07:00 -16°C° 0.1 mm 8 mps 709 mmHg 85%
    08:00 -15°C° 0.1 mm 7 mps 710 mmHg 85%
    09:00 -17°C° 0.1 mm 7 mps 710 mmHg 85%
    10:00 -16°C° 0.1 mm 6 mps 710 mmHg 85%
    11:00 -17°C° 0.1 mm 6 mps 710 mmHg 83%
    12:00 -19°C° 0.1 mm 7 mps 711 mmHg 82%
    13:00 -19°C° 0.1 mm 7 mps 711 mmHg 81%
    14:00 -20°C° 0 mm 7 mps 712 mmHg 82%
    15:00 -23°C° 0 mm 7 mps 712 mmHg 84%
    16:00 -23°C° 0 mm 6 mps 713 mmHg 85%
    17:00 -24°C° 0 mm 6 mps 714 mmHg 87%
    18:00 -26°C° 0 mm 5 mps 714 mmHg 89%
    19:00 -26°C° 0 mm 4 mps 715 mmHg 90%
    20:00 -27°C° 0 mm 4 mps 716 mmHg 91%
    21:00 -29°C° 0 mm 4 mps 716 mmHg 92%
    22:00 -30°C° 0 mm 4 mps 717 mmHg 94%
    23:00 -32°C° 0 mm 4 mps 718 mmHg 94%
    Show more